Retour au catalogue

STARLINK-36662

ActifCommunicationsVLEO
NORAD 67832·PAYLOAD·🇺🇸 United States

Lancé Feb 16, 2026 depuis Vandenberg Space Force Base

Loading…

Prochains Passages (prochaines 24 heures)

TLE

FraisSource: CelesTrak SupGP

Époque: Sep 14, 2026, 23:30 UTC

1 67832C 26033M   26257.97965278  .00039067  00000+0  14152-2 0  2571
2 67832  42.9994 271.0253 0001468 263.9846  73.1699 15.27553741    18

Suivez STARLINK-36662 en temps réel avec AllMySat

Download on the App Store